AT994 Weather Reports


time (UTC)temp
C
wind
direction
speed
KPH
gust
KPH
rain 1hr
cm
rain 24hr
cm
rain mn
cm
humidity
%
barometer
mb
20260505081325 15 140 0.0 1.6 0.05 0.08 0.08 84 1000.4
20260505080324 15 172 0.0 3.2 0.05 0.08 0.08 85 1000.6
20260505075324 15 172 0.0 0.0 0.05 0.08 0.08 85 1000.6
20260505074322 15 189 0.0 8.0 0.08 0.08 0.08 84 1000.7
20260505073803 15 228 0.0 12.9 0.08 0.08 0.08 84 1001.2
20260505072322 15 216 1.6 20.9 0.05 0.05 0.05 82 1001.1
20260505071323 16 242 1.6 17.7 0.03 0.03 0.03 80 1001.1
20260505070322 16 205 1.6 20.9 0.03 0.03 0.03 78 1001.0
20260505065322 17 186 3.2 25.7 0.03 0.03 0.03 73 1001.2
20260505064322 17 213 1.6 19.3 0.00 0.00 0.00 68 1001.2
20260505063322 17 176 0.0 8.0 0.00 0.00 0.00 69 1001.2
20260505062320 17 221 0.0 8.0 0.00 0.00 0.00 69 1001.1
20260505061320 17 183 0.0 4.8 0.00 0.00 0.00 69 1001.1
20260505060800 17 195 0.0 8.0 0.00 0.00 0.00 68 1001.1
20260505055316 17 202 0.0 9.7 0.00 0.00 0.00 67 1001.0
20260505054316 17 161 0.0 14.5 0.00 0.00 0.00 66 1001.0
20260505053316 17 206 1.6 14.5 0.00 0.00 0.00 64 1001.1
20260505052315 18 164 1.6 22.5 0.00 0.00 0.00 63 1001.2
20260505051315 18 169 0.0 11.3 0.00 0.00 0.00 62 1001.2
20260505050313 18 182 0.0 8.0 0.00 0.00 0.00 61 1001.2
20260505041312 17 177 0.0 1.6 0.00 0.00 0.00 57 1001.2
20260505040311 17 184 0.0 1.6 0.00 0.00 0.00 56 1001.4
20260505035312 17 184 0.0 1.6 0.00 0.00 0.00 55 1001.4
20260505034311 17 193 0.0 4.8 0.00 0.00 0.00 54 1001.8
20260505033311 18 211 1.6 12.9 0.00 0.00 0.00 53 1001.9
20260505032310 18 165 1.6 17.7 0.00 0.00 0.00 50 1001.9
20260505031309 17 208 0.0 0.0 0.00 0.00 0.00 51 1002.1
20260505030304 17 208 0.0 0.0 0.00 0.00 0.00 50 1001.5
20260505025305 17 207 0.0 0.0 0.00 0.00 0.00 50 1001.5
20260505024304 17 207 0.0 0.0 0.00 0.00 0.00 50 1001.5
20260505023304 17 208 0.0 0.0 0.00 0.00 0.00 49 1001.5
20260505022304 17 207 0.0 0.0 0.00 0.00 0.00 48 1001.5
20260505021304 17 207 0.0 0.0 0.00 0.00 0.00 47 1001.6
20260505020304 18 211 0.0 1.6 0.00 0.00 0.00 46 1001.8
20260505015304 18 211 0.0 4.8 0.00 0.00 0.00 46 1001.9
20260505014301 18 220 0.0 0.0 0.00 0.00 0.00 46 1002.1
20260505013741 18 220 0.0 0.0 0.00 0.00 0.00 44 1001.9
20260505012739 19 220 0.0 0.0 0.00 0.00 0.00 43 1001.9
20260505011302 19 220 0.0 0.0 0.00 0.00 0.00 42 1001.8
20260505010302 19 219 0.0 0.0 0.00 0.00 0.00 42 1001.8
20260505005304 20 220 0.0 0.0 0.00 0.00 0.00 40 1001.6
20260505004302 20 220 0.0 0.0 0.00 0.00 0.00 40 1001.5
20260505003302 20 221 0.0 0.0 0.00 0.00 0.00 39 1001.5
20260505002749 21 221 0.0 0.0 0.00 0.00 0.00 37 1001.6
20260505001301 21 230 0.0 6.4 0.00 0.00 0.00 37 1001.8
20260505000301 21 234 0.0 0.0 0.00 0.00 0.00 36 1001.8
20260504235748 21 237 0.0 1.6 0.00 0.03 0.00 35 1001.6
20260504234746 21 235 0.0 0.0 0.00 0.03 0.00 36 1001.5
20260504233301 22 242 0.0 0.0 0.00 0.03 0.00 35 1001.6
20260504232303 22 242 0.0 0.0 0.00 0.03 0.00 34 1001.6
20260504231302 22 229 1.6 20.9 0.00 0.03 0.00 33 1001.6
20260504230739 22 198 1.6 14.5 0.00 0.03 0.00 33 1001.6
20260504225740 22 250 0.0 17.7 0.00 0.03 0.00 32 1001.5
20260504224301 23 240 1.6 16.1 0.00 0.03 0.00 32 1001.4
20260504223301 23 248 0.0 11.3 0.00 0.03 0.00 31 1001.4
20260504222301 23 237 1.6 17.7 0.00 0.03 0.00 32 1001.4
20260504221301 23 223 1.6 11.3 0.00 0.03 0.00 31 1001.3
20260504220735 23 229 0.0 11.3 0.00 0.03 0.00 31 1001.3
20260504215301 23 227 3.2 27.4 0.00 0.03 0.00 31 1001.4
20260504214301 23 235 4.8 27.4 0.00 0.03 0.00 33 1001.5
20260504213735 23 232 3.2 22.5 0.00 0.03 0.00 30 1001.5
20260504212303 23 233 6.4 29.0 0.00 0.03 0.00 32 1001.5
20260504211301 24 232 4.8 30.6 0.00 0.03 0.00 30 1001.6
20260504210301 23 212 8.0 29.0 0.00 0.03 0.00 31 1001.6
20260504205301 24 219 3.2 27.4 0.00 0.03 0.00 31 1001.8
20260504204302 24 213 3.2 33.8 0.00 0.03 0.00 31 1001.9
20260504203301 24 259 4.8 25.7 0.00 0.03 0.00 34 1002.0
20260504202301 23 199 6.4 33.8 0.00 0.03 0.00 34 1002.1
20260504201301 23 225 11.3 43.5 0.00 0.03 0.00 34 1002.1
20260504200654 23 229 4.8 27.4 0.00 0.03 0.00 35 1002.5
20260504200430 23 234 8.0 35.4 0.00 0.03 0.00 33 1002.3
20260504194301 23 227 4.8 30.6 0.00 0.03 0.00 34 1002.6
20260504193301 23 243 6.4 32.2 0.00 0.03 0.00 38 1002.8
20260504192742 23 257 4.8 25.7 0.00 0.03 0.00 36 1002.9
20260504191300 22 239 6.4 22.5 0.00 0.03 0.00 37 1003.0
20260504190300 22 250 11.3 37.0 0.00 0.03 0.00 36 1003.2
20260504185302 22 223 17.7 43.5 0.00 0.03 0.00 37 1003.3
20260504184741 22 230 9.7 33.8 0.00 0.03 0.00 38 1003.5
20260504183301 22 240 8.0 32.2 0.00 0.03 0.00 40 1003.5
20260504182301 21 226 12.9 43.5 0.00 0.03 0.00 40 1003.7
20260504181301 21 0 11.3 32.2 0.00 0.03 0.00 42 1003.8
20260504180301 22 226 6.4 24.1 0.00 0.03 0.00 42 1003.7
20260504175301 21 0 4.8 27.4 0.00 0.03 0.00 42 1003.9
20260504174301 21 0 4.8 24.1 0.00 0.03 0.00 43 1004.0
20260504173301 21 224 8.0 27.4 0.00 0.03 0.00 45 1004.0
20260504172301 21 254 4.8 32.2 0.00 0.03 0.00 43 1004.2
20260504171301 20 169 4.8 25.7 0.00 0.03 0.00 44 1004.1
20260504170301 20 244 6.4 25.7 0.00 0.03 0.00 44 1004.2
20260504160301 18 202 6.4 30.6 0.00 0.03 0.00 47 1004.7
20260504150301 17 0 4.8 35.4 0.00 0.03 0.00 47 1005.1
20260504140301 16 223 6.4 30.6 0.00 0.03 0.00 49 1005.0
20260504130300 14 209 0.0 8.0 0.00 0.03 0.00 54 1005.8
20260504110301 11 174 0.0 4.8 0.00 0.03 0.00 59 1005.8
20260504100302 11 195 0.0 8.0 0.00 0.03 0.00 54 1005.4